Regional Weather Roundup
Issued by NWS

Home | Current Version | Previous Version | Text Only | Print | Product List | Glossary Off
Versions: 1 2 3 4 5 6 7 8 9 10 11 12 13 14 15 16 17 18 19 20 21 22 23 24 25 26 27 28

000
ASUS45 KCYS 271410
RWRWY

WYOMING REGIONAL WEATHER ROUNDUP
NATIONAL WEATHER SERVICE CHEYENNE WY
800 AM MDT MON MAR 27 2017

NOTE:  "FAIR" INDICATES FEW OR NO CLOUDS BELOW 12,000 FEET
WITH NO SIGNIFICANT WEATHER AND/OR OBSTRUCTIONS TO VISIBILITY.

WYZ001-271500-
YELLOWSTONE NATIONAL PARK

CITY           SKY/WX    TMP DP  RH WIND       PRES   REMARKS
LK YELLOWSTONE   N/A     28  28 100 CALM      29.91R
W YELLOWSTONE  NOT AVBL

$$
WYZ002>013-054>058-071-098>099-271500-
NORTHERN WYOMING

CITY           SKY/WX    TMP DP  RH WIND       PRES   REMARKS
JACKSON        CLOUDY    32  30  93 SW6       29.91R WCI  26
CODY           FAIR      38  25  59 CALM      29.85R
GREYBULL       FAIR      39  33  79 SE5       29.84R
WORLAND        FAIR      39  33  79 S5        29.84R
SHERIDAN       FAIR      37  33  85 S3        29.82S
BUFFALO        FAIR      42  32  67 CALM      29.83R
GILLETTE       PTSUNNY   35  33  92 SE8       29.83F WCI  29
HULETT         FAIR      36  32  87 CALM      29.86F
NEWCASTLE      FAIR      32  32 100 W6        29.87S WCI  26

$$
WYZ014>020-022>026-101>103-271500-
CENTRAL WYOMING

CITY           SKY/WX    TMP DP  RH WIND       PRES   REMARKS
BIG PINEY      FAIR      26  24  92 N3        29.94R
PINEDALE       PTSUNNY   27  27 100 E3        29.95R
DUBOIS         PTSUNNY   32  23  69 NW8       29.87R WCI  25
LANDER         FAIR      34  23  64 W5        29.86S WCI  30
RIVERTON       FAIR      36  26  67 W9        29.87R WCI  29
CASPER         FAIR      36  27  69 SW10G20   29.86R WCI  28
DOUGLAS        FAIR      33  31  92 S8        29.86S WCI  26

$$
WYZ021-027>030-104>119-271500-
SOUTHERN WYOMING

CITY           SKY/WX    TMP DP  RH WIND       PRES   REMARKS
EVANSTON       CLOUDY    33  27  78 S7        29.92S WCI  27
KEMMERER         N/A     30  27  86 CALM      29.93R
ROCK SPRINGS   CLOUDY    38  26  62 SE8       29.93S WCI  32
DIXON            N/A     35  29  80 SE3       29.97S
RAWLINS        CLOUDY    37  23  56 SW10      29.94R WCI  30
SARATOGA       FAIR      32  27  80 E3        29.96R
LARAMIE        FAIR      30  24  78 SW5       29.92R WCI  25
CHEYENNE       FOG       33  32  96 SW9       29.93R VSB 1/4 WCI  25
TORRINGTON     FAIR      30  29  96 NE5       29.89S FOG     WCI  25
PINE BLUFFS    FAIR      28  28 100 CALM      29.94S

$$




USA.gov is the U.S. government's official web portal to all federal, state and local government web resources and services.